Theta_e
336 335 336 341 344 345 344 344 345 344 341 343 343 342 344 343 340 340 341 343 343 340 340 339 338 339 339 340 339 340 340 339 339 339 339 339 338 335 335 335 333 333 332
342 343 344 344 345 345 345 345 345 344 341 343 343 342 344 343 344 342 342 342 342 341 340 340 340 340 340 341 340 340 339 339 338 337 337 338 338 337 338 339 332 333 337
343 343 343 345 345 346 344 344 344 344 343 342 342 344 343 344 345 343 341 342 343 343 342 343 342 342 341 341 340 340 340 338 334 333 334 337 337 339 339 336 335 338 340
343 344 343 343 345 344 346 346 344 342 344 342 342 344 343 343 344 342 344 342 344 343 342 344 342 343 343 341 341 340 340 338 333 333 333 335 336 335 336 337 336 338 338
342 343 342 341 343 345 343 346 345 345 344 344 344 344 343 344 344 345 345 345 345 344 343 344 343 343 343 343 341 339 340 339 335 332 331 331 332 333 333 335 336 336 328
341 342 342 341 343 345 344 344 343 345 345 344 344 342 342 344 345 344 345 345 344 342 341 346 344 342 343 343 343 340 340 340 340 333 332 331 332 333 333 333 330 327 331
341 341 341 342 345 344 341 342 342 342 345 345 346 342 344 343 345 344 344 344 342 340 342 341 345 344 343 343 343 342 340 340 341 340 333 333 334 334 331 328 328 329 331
344 343 340 342 345 345 341 340 342 343 343 346 346 343 343 344 346 344 344 344 345 344 343 341 340 340 343 344 343 343 343 342 340 341 340 336 334 335 334 332 330 330 331
343 343 340 341 345 344 340 342 342 341 340 345 346 345 344 342 342 343 343 344 344 343 344 344 344 343 339 342 345 344 344 343 343 341 341 341 340 338 337 336 336 335 336
338 343 339 340 344 343 339 338 339 341 341 342 345 346 346 343 342 341 342 343 343 342 343 344 345 345 344 339 343 344 345 346 344 343 342 341 341 341 341 340 340 340 340
342 342 341 340 342 341 341 342 342 343 341 345 344 342 343 344 343 342 342 341 342 342 342 343 344 344 346 344 341 340 344 344 345 344 343 343 341 341 341 340 340 340 339
341 342 341 340 340 340 339 343 340 342 345 343 342 340 337 340 339 342 344 342 340 342 342 343 343 344 346 346 343 343 344 344 343 344 344 343 343 342 341 341 340 341 341
342 340 343 340 336 338 336 337 342 340 340 343 340 341 340 344 344 340 339 340 340 339 343 344 346 345 348 346 346 345 344 344 343 343 344 344 344 343 342 342 341 342 343
343 343 342 342 339 341 340 343 342 340 339 339 338 341 340 345 345 345 347 346 344 342 342 343 343 345 344 344 345 345 346 346 345 345 343 342 343 343 343 342 342 342 342
339 342 343 341 340 341 342 343 343 343 343 342 339 341 341 341 344 343 345 347 347 345 343 342 343 343 343 343 344 346 347 346 346 344 346 344 344 344 343 342 342 342 341
341 343 343 339 336 339 346 346 348 347 345 345 342 342 342 341 343 343 343 346 347 348 346 342 340 341 339 340 341 342 343 346 343 344 346 345 345 344 344 342 342 342 342
342 343 343 339 337 339 342 346 346 345 343 343 344 343 342 344 343 344 344 344 343 344 345 345 343 342 341 342 341 343 343 345 347 345 346 344 345 345 345 345 343 343 343
343 344 343 338 342 344 343 344 345 345 343 343 346 345 344 342 342 342 344 345 345 345 346 344 343 344 344 343 341 343 343 343 342 342 345 346 344 344 346 346 345 344 343
342 343 339 339 341 344 346 346 345 345 344 344 343 341 340 340 340 343 342 342 342 343 344 345 343 343 343 343 339 337 340 342 341 343 344 345 345 344 344 343 343 344 343
341 342 337 335 340 344 345 344 346 347 346 345 344 343 342 341 340 340 339 339 340 345 346 346 345 345 345 341 339 339 340 340 339 342 342 341 341 344 344 343 342 340 337
340 340 336 333 339 341 344 345 345 345 343 343 343 343 342 340 344 344 344 343 343 344 345 345 345 345 343 342 341 343 345 343 342 342 341 340 340 341 343 344 343 340 339
338 338 337 335 335 335 339 341 341 340 338 338 340 341 341 341 341 342 343 345 344 344 345 346 344 345 343 344 344 344 343 343 342 342 340 341 341 340 341 341 343 342 341
336 336 336 336 336 336 336 337 341 342 342 344 345 344 344 342 341 343 344 342 344 343 343 343 344 343 347 346 344 342 342 342 341 341 340 340 340 342 342 342 342 339 337
337 337 337 338 339 339 340 341 345 346 346 342 337 335 334 342 344 343 344 344 344 344 341 340 342 344 345 344 342 339 339 340 340 340 338 338 339 341 342 343 341 336 337
338 338 339 341 342 343 345 347 347 346 346 345 341 338 341 341 342 343 343 342 338 335 326 322 322 323 323 323 324 327 330 330 330 335 338 337 337 338 341 340 338 337 337
346 346 347 348 349 350 350 350 349 349 349 346 340 336 338 338 338 340 339 326 322 323 326 328 329 329 328 327 324 324 325 327 327 327 326 334 334 334 338 337 336 336 334
Wind_Speed
12 10 9 10 8 4 2 1 3 6 5 6 4 2 3 7 7 7 5 2 3 5 8 9 8 5 6 9 10 9 9 8 10 12 12 11 11 11 12 11 15 15 15
9 7 8 8 5 2 2 2 3 4 4 5 5 5 3 5 6 1 1 7 7 6 6 7 8 7 7 8 9 9 8 7 7 8 8 8 7 7 7 8 8 10 12
7 7 9 7 3 1 1 2 2 4 7 4 2 2 4 6 5 4 1 2 6 9 8 4 5 7 7 8 8 7 7 6 4 5 6 6 8 8 8 8 10 10 11
10 8 7 4 2 2 2 3 3 2 5 7 4 5 1 2 4 3 4 2 2 3 4 4 4 5 6 7 8 6 5 5 4 4 5 6 7 7 8 9 9 9 9
13 10 7 4 2 2 0 2 2 4 5 7 5 4 2 2 3 2 2 2 3 2 4 5 4 3 4 6 6 6 5 4 4 5 5 5 6 7 8 8 8 8 8
13 13 9 6 5 5 4 4 5 5 5 6 5 5 5 3 3 2 1 1 1 4 3 5 7 5 5 5 6 6 6 5 4 5 6 6 5 6 7 8 8 9 9
15 14 11 9 6 7 6 7 5 5 4 7 5 1 4 2 4 2 4 4 4 4 5 4 5 5 7 6 6 5 6 6 5 4 5 5 6 6 7 7 8 9 9
17 15 15 12 8 8 8 6 5 6 4 4 5 4 3 5 7 6 6 5 6 5 5 5 4 4 8 8 7 6 4 6 6 6 5 4 5 6 7 7 8 9 10
21 17 15 16 12 9 8 6 2 6 6 4 4 3 2 2 2 2 6 6 7 6 6 7 8 8 7 6 8 7 6 5 6 6 7 5 5 6 7 7 8 9 9
22 21 16 18 15 11 7 9 8 8 6 5 5 3 3 2 2 2 2 5 7 6 7 7 6 8 7 6 6 7 8 6 6 6 7 7 6 6 7 7 8 8 9
23 25 20 19 18 13 9 9 8 8 8 7 6 6 5 5 6 5 6 7 5 6 6 8 8 7 7 5 6 6 9 8 6 6 6 7 8 8 8 7 8 8 9
22 24 22 20 19 16 14 11 11 11 10 8 8 8 8 8 8 8 10 12 11 9 6 6 8 8 7 6 4 4 6 10 8 8 7 8 9 9 9 8 8 9 9
22 23 21 19 19 18 17 15 14 15 14 14 12 10 8 7 8 9 10 12 14 14 9 6 5 8 5 6 5 6 6 8 8 8 8 8 10 10 10 10 9 8 8
19 21 19 19 17 14 14 14 14 12 13 14 13 11 10 9 9 9 9 10 13 12 12 10 5 5 5 4 8 7 10 11 10 8 8 9 11 11 11 11 11 10 8
23 20 20 20 19 16 15 14 13 11 11 12 12 13 12 12 12 11 12 11 11 13 17 13 13 10 11 9 8 10 11 13 12 13 12 11 12 12 12 11 11 12 11
25 24 22 18 19 19 16 17 18 16 15 12 12 15 15 14 14 15 14 14 15 15 19 19 18 17 15 14 13 13 13 11 15 15 12 14 12 13 14 13 12 12 13
25 24 22 22 21 20 19 18 16 15 15 15 15 15 16 15 16 16 18 19 18 18 21 21 21 17 18 16 13 14 14 15 13 12 15 14 13 14 14 15 14 14 13
26 24 22 23 21 19 17 15 12 11 13 16 17 18 19 19 19 18 19 19 20 20 23 26 24 20 19 18 16 16 15 17 17 17 18 19 19 18 17 16 17 16 15
26 24 23 24 21 18 16 15 15 17 17 19 20 20 21 21 23 23 23 24 24 24 25 28 28 26 25 22 17 16 16 17 17 19 19 20 21 22 20 18 16 16 16
27 26 26 26 23 21 21 21 21 21 21 23 24 24 25 23 25 26 25 26 26 25 26 28 28 29 27 23 23 22 20 18 18 18 19 20 21 20 20 19 18 17 17
25 26 26 27 25 25 25 24 23 25 24 24 24 24 23 24 24 25 26 25 25 28 28 29 30 29 29 27 26 25 25 24 23 22 20 17 18 19 18 22 23 20 19
24 25 27 28 29 29 28 28 28 29 28 27 25 24 25 25 25 26 27 27 29 31 32 33 33 34 32 30 29 29 29 28 27 23 20 16 17 19 21 22 20 18 17
22 24 24 26 27 28 28 26 24 22 24 24 24 26 28 29 29 27 27 27 26 28 31 32 34 34 34 34 35 36 35 33 31 24 20 20 18 18 16 15 16 18 16
21 21 21 22 23 23 22 21 21 22 24 23 26 32 32 30 28 28 30 30 30 31 33 34 38 40 41 41 41 41 41 37 34 33 24 23 20 18 17 17 18 17 15
20 20 20 21 22 22 22 22 23 24 28 33 35 24 19 18 20 22 29 31 34 35 34 36 39 41 41 40 38 36 34 32 31 30 32 26 22 19 20 18 16 15 16
19 19 20 20 20 21 21 23 22 27 26 27 26 20 17 16 18 25 31 32 35 33 32 32 33 33 32 32 31 31 32 32 30 21 29 28 25 21 18 17 16 15 14
Wind_Direction
148 147 149 155 157 154 115 333 359 15 32 25 11 343 259 263 253 247 239 302 327 267 246 233 247 256 268 270 263 260 258 261 264 258 255 251 249 260 250 256 234 231 240
150 146 160 166 162 138 131 130 22 46 31 39 61 352 338 235 247 7 251 247 247 243 234 229 234 237 250 257 267 263 259 250 258 265 260 252 241 233 233 240 220 227 243
159 148 167 151 151 97 80 65 63 88 33 18 8 303 357 234 233 250 22 192 228 222 207 216 236 233 228 237 248 253 269 263 251 258 257 241 232 232 231 228 231 241 244
170 162 166 169 124 95 85 64 20 360 358 354 347 351 319 269 238 281 244 237 225 245 226 219 206 222 229 229 232 234 242 270 261 246 243 236 228 225 226 231 233 235 233
189 180 181 185 211 174 289 345 18 9 348 340 321 320 318 320 219 128 298 235 239 264 247 235 248 229 231 231 226 228 222 229 244 233 225 230 227 218 213 216 220 221 224
207 202 193 208 218 233 247 306 289 311 329 339 305 295 296 199 174 51 63 161 318 352 299 281 258 258 262 263 243 237 227 223 230 228 218 205 210 219 218 214 212 213 220
211 209 206 211 224 241 256 256 313 303 305 330 328 345 99 176 193 328 104 78 5 357 17 289 267 259 267 251 239 236 236 228 225 230 222 219 212 211 217 218 219 221 229
210 214 214 215 226 240 257 249 284 294 285 332 22 165 7 53 74 97 77 35 17 354 342 2 350 305 265 260 253 246 242 237 232 228 230 216 220 225 220 224 229 233 238
213 216 217 216 226 235 240 231 295 301 274 290 7 22 332 35 12 43 35 16 10 9 346 319 321 316 342 259 234 241 246 234 238 237 239 235 231 233 239 237 239 244 249
219 215 219 213 225 231 246 248 263 285 281 272 287 316 346 332 352 323 356 11 8 3 9 346 310 294 305 343 246 248 245 241 242 243 250 248 246 249 252 256 255 258 260
216 213 220 218 224 236 248 252 265 268 267 277 269 273 281 289 303 312 313 310 315 349 344 348 346 299 270 307 339 261 250 260 251 243 246 258 258 257 264 268 268 266 270
211 213 221 222 225 235 243 255 265 263 266 273 286 290 279 276 273 285 295 304 311 321 344 346 341 324 280 258 287 291 275 267 266 261 254 253 255 255 261 267 273 272 276
215 214 221 225 231 237 247 256 263 261 260 273 284 287 296 288 296 293 289 297 298 299 305 344 9 11 348 250 286 289 270 266 266 274 273 272 268 264 261 259 267 271 274
219 217 225 234 240 242 248 253 255 258 263 276 283 282 290 282 297 296 298 305 305 294 289 300 306 298 337 310 300 280 272 262 261 270 279 274 272 272 264 261 263 270 276
226 225 231 239 235 243 250 248 253 260 270 280 278 281 285 281 283 292 289 291 288 293 299 300 307 290 292 288 296 282 301 259 263 270 270 264 265 267 266 263 263 267 273
228 228 235 238 234 240 235 254 257 261 269 280 281 280 283 284 284 285 286 290 286 285 284 295 301 299 298 291 278 272 282 272 265 269 256 264 263 264 265 261 260 262 263
227 229 238 234 236 242 245 251 264 270 263 276 283 291 289 288 286 289 288 288 286 285 287 293 294 296 297 298 285 275 271 268 273 270 261 272 272 270 269 265 261 262 264
226 231 237 231 235 244 248 254 266 266 268 276 287 285 287 287 287 290 290 287 286 287 289 292 292 290 294 299 292 283 271 268 271 264 265 263 265 270 261 260 258 258 261
224 227 228 228 237 245 248 254 267 274 278 280 285 284 286 283 283 286 286 284 283 284 283 283 286 289 292 292 287 290 288 278 274 269 264 265 266 264 264 259 260 257 259
224 227 228 232 237 242 251 256 263 271 276 282 287 288 288 284 285 285 282 279 279 278 279 277 279 284 286 287 283 289 292 290 283 273 267 267 263 262 257 252 252 248 264
228 232 234 235 242 247 254 260 265 272 275 276 277 279 277 278 281 281 280 280 278 276 275 273 275 280 281 280 279 287 291 291 287 282 276 272 264 259 253 247 249 251 254
230 233 236 242 247 252 256 260 263 267 270 275 279 281 277 272 272 274 276 278 276 275 272 273 275 274 276 277 281 286 288 289 289 286 281 267 260 254 253 257 252 250 258
233 236 239 243 248 253 257 261 266 271 270 272 278 281 279 274 270 271 273 271 278 277 275 275 273 276 277 278 279 278 275 277 280 282 282 278 269 258 252 249 238 243 244
233 236 240 244 249 253 258 263 267 271 266 265 282 289 280 265 260 257 267 275 278 279 277 276 275 274 271 270 271 272 272 271 266 264 262 271 271 267 252 242 249 235 250
236 237 242 246 253 261 266 267 267 268 262 273 279 295 281 267 273 271 274 280 282 281 282 278 276 274 271 269 267 265 263 263 260 257 254 255 256 263 252 251 236 246 248
241 244 248 251 256 264 271 278 276 272 282 273 273 285 278 281 298 290 279 283 285 290 285 280 275 274 274 269 262 259 259 256 254 256 252 247 252 247 232 234 236 238 227